[[{"header":{"parameterUnit":"m.s-1","parameterCategory":1,"la1":30.2991,"la2":30.254,"lo1":-89.0895,"lo2":-89.0444,"dy":0.0017,"dx":0.0017,"nx":28,"ny":28,"refTime":"2025-04-10T21:00:00:Z","depth":0,"parameterNumber":2,"parameterNumberName":"U-component_of_WINDS"},"data":[0,0,0,0,0,0,0,0,0,0,0,0,0,0,0,0,0,0,0,0,0,0,0,0,0,0,0,0,0,0,0,0,0,0,0,0,0,0,0,0,0,0,0,0,0,0,0,0,0,0,0,0,0,0,0,0,0,0,1.2443,1.2443,0,1.245,1.245,1.245,1.2454,1.2454,1.2454,1.2454,1.2462,1.2462,1.2462,0,0,0,0,0,0,0,0,0,0,0,0,0,1.2432,1.2432,1.2443,1.2443,1.2443,1.245,1.245,1.245,1.2454,1.2454,1.2454,1.2454,1.2462,1.2462,1.2462,0,0,0,0,0,0,0,0,0,0,0,0,0,1.2438,1.2432,1.2443,1.2446,1.2446,1.245,1.245,1.245,1.2454,1.2454,1.2454,1.2454,1.2462,1.2462,1.2462,1.2464,0,0,1.2463,1.2463,0,0,0,0,0,0,0,0,1.2437,1.2438,1.2445,1.2445,1.2446,1.2451,1.2449,1.2455,1.2454,1.2451,1.2454,1.2454,1.2458,1.2459,1.246,1.2464,1.2465,1.2463,1.2463,1.2464,1.2464,0,0,0,0,0,0,0,1.2437,1.2438,1.2445,1.2445,1.2446,1.2447,1.2447,1.245,1.2454,1.2451,1.2452,1.2452,1.2459,1.246,1.246,1.2465,1.2463,1.2464,1.2464,1.2464,1.2471,1.2471,0,0,0,0,0,0,1.2436,1.2438,1.2445,1.2446,1.2442,1.2447,1.2448,1.2449,1.2454,1.2455,1.2452,1.2452,1.2459,1.246,1.2461,1.2463,1.2464,1.2464,1.2464,1.2471,1.2471,1.2471,0,0,0,0,0,0,1.2436,1.2437,1.2445,1.2442,1.2443,1.2447,1.2449,1.2449,1.2451,1.2455,1.2456,1.2453,1.2459,1.246,1.2463,1.2464,1.2464,1.2464,1.2471,1.2471,1.2471,1.2468,0,0,0,0,0,0,1.2436,1.2437,1.2437,1.2442,1.2443,1.2447,1.2449,1.245,1.2451,1.2452,1.2456,1.2457,1.246,1.2463,1.2464,1.2464,1.2465,1.2471,1.2471,1.2471,1.2468,1.2468,1.2468,0,0,0,0,0,1.2435,1.2436,1.2437,1.2438,1.2444,1.2447,1.2448,1.2451,1.2451,1.2452,1.2455,1.2457,1.2463,1.2463,1.2464,1.2465,1.2471,1.2471,1.2471,1.2468,1.2468,1.2468,0,0,0,0,0,0,1.2432,1.2437,1.2438,1.244,1.2443,1.2448,1.2449,1.245,1.2453,1.2453,1.2457,1.2458,1.2461,1.2463,1.2462,1.2467,1.2467,1.2468,1.2465,1.2465,1.2465,1.2464,1.2465,0,0,0,0,0,1.2431,1.2433,1.2438,1.2439,1.2441,1.2445,1.2446,1.2448,1.2451,1.2453,1.2456,1.2459,1.2462,1.2463,1.2466,1.2469,1.247,1.247,1.2469,1.2469,1.2469,1.2471,1.2471,1.2471,1.2471,1.2471,0,0,1.243,1.2433,1.2434,1.2439,1.2441,1.2444,1.2446,1.2448,1.245,1.2453,1.2456,1.2458,1.2462,1.2465,1.2466,1.2467,1.247,1.2469,1.2469,1.2469,1.2471,1.2471,1.2471,1.2471,1.2471,1.2471,0,0,1.2429,1.2432,1.2434,1.2436,1.244,1.2442,1.2443,1.2447,1.2449,1.2452,1.2454,1.2457,1.2461,1.2464,1.2466,1.2467,1.2468,1.2467,1.2467,1.2468,1.2468,1.2468,1.2469,1.2469,1.2468,1.2468,1.2468,0,1.2428,1.2431,1.2434,1.2437,1.2439,1.2442,1.2443,1.2446,1.245,1.2452,1.2452,1.2458,1.2461,1.2465,1.2465,1.2466,1.2467,1.2467,1.2468,1.2468,1.2468,1.2468,1.2469,1.2467,1.2467,1.2467,1.2467,0,1.2429,1.2431,1.2432,1.2437,1.2439,1.2441,1.2444,1.2446,1.2448,1.2451,1.2454,1.2457,1.2461,1.2462,1.2464,1.2466,1.2466,1.2467,1.2468,1.2468,1.2468,1.2468,1.2467,1.2467,1.2467,1.2467,0,0,1.2426,1.2432,1.2432,1.2435,1.2439,1.2441,1.2443,1.2447,1.2448,1.2451,1.2454,1.2458,1.2459,1.2461,1.2463,1.2465,1.2465,1.2466,1.2466,1.2466,1.2468,1.2467,1.2467,1.2467,1.2467,1.2467,1.2468,0,1.2426,1.243,1.2433,1.2436,1.2439,1.2442,1.2444,1.2447,1.2449,1.2452,1.2455,1.2458,1.2459,1.246,1.2462,1.2465,1.2466,1.2465,1.2469,1.2469,1.2468,1.2467,1.2466,1.2467,1.2468,1.2468,1.2468,0,1.2427,1.243,1.2433,1.2437,1.2438,1.244,1.2444,1.2446,1.245,1.2451,1.2454,1.2456,1.2459,1.246,1.2464,1.2463,1.2465,1.2467,1.2467,1.2468,1.2468,1.2468,1.2467,1.2468,1.2468,1.2468,1.2468,0,1.2424,1.2429,1.2432,1.2433,1.2439,1.244,1.2442,1.2446,1.2448,1.2451,1.2452,1.2456,1.2458,1.2461,1.2464,1.2464,1.2468,1.2469,1.247,1.247,1.247,1.247,1.247,1.2471,1.2471,1.2471,1.2471,0,1.2424,1.2426,1.2431,1.2432,1.2435,1.2438,1.244,1.2443,1.2446,1.2449,1.2452,1.2454,1.2458,1.2461,1.2464,1.2467,1.2468,1.2469,1.247,1.2469,1.2469,1.247,1.247,1.2471,1.2471,1.2471,1.2471,0,1.2422,1.2425,1.2428,1.2433,1.2434,1.2436,1.244,1.2441,1.2444,1.2447,1.2448,1.2452,1.2456,1.246,1.2464,1.2466,1.2469,1.247,1.2468,1.2468,1.2469,1.2469,1.247,1.247,1.2471,1.2471,1.2471,0,1.2421,1.2423,1.2428,1.2429,1.2432,1.2434,1.2436,1.244,1.2442,1.2447,1.2448,1.2452,1.2455,1.246,1.2464,1.2468,1.2469,1.2469,1.2469,1.2468,1.2469,1.2469,1.2469,1.2469,1.2469,1.2469,1.2469,0,1.242,1.2422,1.2425,1.2428,1.2431,1.2433,1.2436,1.2438,1.2442,1.2444,1.2448,1.245,1.2455,1.2459,1.2463,1.2466,1.2468,1.2468,1.2469,1.2468,1.2467,1.2467,1.2468,1.2468,1.2468,1.2468,1.2468,1.2468,1.2419,1.2421,1.2424,1.2427,1.243,1.2433,1.2435,1.2438,1.2441,1.2445,1.2447,1.2451,1.2455,1.246,1.2463,1.2466,1.2467,1.2467,1.2467,1.2468,1.2467,1.2466,1.2467,1.2467,1.2467,1.2467,1.2467,0,1.2418,1.2421,1.2424,1.2428,1.243,1.2432,1.2436,1.2438,1.2441,1.2444,1.2447,1.2451,1.2455,1.2459,1.2463,1.2465,1.2466,1.2466,1.2466,1.2466,1.2466,1.2466,1.2465,1.2465,1.2465,1.2465,1.2465,1.2465,1.2418,1.2421,1.2423,1.2427,1.243,1.2433,1.2435,1.2438,1.2441,1.2445,1.2448,1.2451,1.2455,1.2459,1.2463,1.2464,1.2465,1.2465,1.2466,1.2466,1.2466,1.2466,1.2466,1.2465,1.2465,1.2466,1.2466,1.2466]},{"header":{"parameterUnit":"m.s-1","parameterCategory":1,"la1":30.2991,"la2":30.254,"lo1":-89.0895,"lo2":-89.0444,"dy":0.0017,"dx":0.0017,"nx":28,"ny":28,"refTime":"2025-04-10T21:00:00:Z","depth":0,"parameterNumber":3,"parameterNumberName":"V-component_of_WINDS"},"data":[0,0,0,0,0,0,0,0,0,0,0,0,0,0,0,0,0,0,0,0,0,0,0,0,0,0,0,0,0,0,0,0,0,0,0,0,0,0,0,0,0,0,0,0,0,0,0,0,0,0,0,0,0,0,0,0,0,0,-3.6921,-3.6922,0,-3.7034,-3.7036,-3.7037,-3.7008,-3.7006,-3.7004,-3.7002,-3.7114,-3.7119,-3.7124,0,0,0,0,0,0,0,0,0,0,0,0,0,-3.6675,-3.668,-3.6921,-3.6922,-3.6923,-3.7034,-3.7036,-3.7037,-3.7009,-3.7006,-3.7003,-3.7001,-3.7113,-3.7119,-3.7125,0,0,0,0,0,0,0,0,0,0,0,0,0,-3.6784,-3.6681,-3.692,-3.6923,-3.6924,-3.7034,-3.7036,-3.7038,-3.7009,-3.7006,-3.7003,-3.6999,-3.7111,-3.7118,-3.7126,-3.7239,0,0,-3.7149,-3.7152,0,0,0,0,0,0,0,0,-3.6778,-3.6793,-3.6921,-3.6923,-3.6924,-3.7004,-3.6991,-3.7105,-3.701,-3.6977,-3.7002,-3.6998,-3.708,-3.709,-3.7119,-3.7245,-3.7249,-3.715,-3.7154,-3.7157,-3.716,0,0,0,0,0,0,0,-3.6771,-3.6788,-3.6965,-3.6923,-3.6925,-3.6917,-3.6929,-3.7012,-3.7045,-3.6979,-3.6978,-3.6992,-3.708,-3.7111,-3.7121,-3.7251,-3.7149,-3.7156,-3.7161,-3.7164,-3.7476,-3.748,0,0,0,0,0,0,-3.6762,-3.6782,-3.6962,-3.6969,-3.6842,-3.6924,-3.6937,-3.6982,-3.7045,-3.7051,-3.6994,-3.699,-3.71,-3.7112,-3.7125,-3.7263,-3.7157,-3.7165,-3.7169,-3.7473,-3.7477,-3.7481,0,0,0,0,0,0,-3.6757,-3.6779,-3.6957,-3.6875,-3.6897,-3.6932,-3.6982,-3.6986,-3.7017,-3.7056,-3.7061,-3.702,-3.7098,-3.7114,-3.7211,-3.7266,-3.7168,-3.7175,-3.7468,-3.7474,-3.7479,-3.7539,0,0,0,0,0,0,-3.675,-3.6777,-3.6821,-3.6877,-3.6902,-3.7043,-3.6985,-3.699,-3.703,-3.7025,-3.7082,-3.7088,-3.7096,-3.72,-3.7219,-3.7275,-3.7181,-3.7464,-3.7471,-3.7478,-3.7532,-3.7546,-3.7558,0,0,0,0,0,-3.6742,-3.6832,-3.6824,-3.6845,-3.6958,-3.7047,-3.7061,-3.707,-3.7035,-3.7079,-3.7105,-3.7086,-3.7257,-3.7211,-3.7231,-3.729,-3.746,-3.7469,-3.7477,-3.7527,-3.7543,-3.7557,0,0,0,0,0,0,-3.6781,-3.684,-3.6831,-3.6942,-3.699,-3.7042,-3.7098,-3.7087,-3.7145,-3.7138,-3.7146,-3.7159,-3.7259,-3.7284,-3.7231,-3.7404,-3.7353,-3.7366,-3.7384,-3.74,-3.7412,-3.7404,-3.7187,0,0,0,0,0,-3.6803,-3.6871,-3.6918,-3.7012,-3.7037,-3.7063,-3.7102,-3.7105,-3.7154,-3.7174,-3.7206,-3.7253,-3.7318,-3.736,-3.7421,-3.7536,-3.7547,-3.7586,-3.7599,-3.7609,-3.762,-3.7683,-3.7701,-3.7509,-3.7509,-3.7509,0,0,-3.6849,-3.6889,-3.6932,-3.7021,-3.7058,-3.7128,-3.708,-3.7155,-3.7207,-3.7185,-3.7279,-3.7305,-3.7358,-3.7464,-3.7513,-3.7489,-3.7676,-3.762,-3.7628,-3.7634,-3.7694,-3.7712,-3.7728,-3.7515,-3.7514,-3.7513,0,0,-3.6968,-3.7006,-3.7089,-3.7127,-3.7185,-3.7202,-3.7222,-3.7275,-3.7292,-3.7387,-3.7372,-3.7433,-3.7543,-3.7582,-3.7616,-3.7751,-3.7736,-3.777,-3.7837,-3.7898,-3.7913,-3.7926,-3.7975,-3.7992,-3.7781,-3.7781,-3.7782,0,-3.7018,-3.7123,-3.7132,-3.721,-3.7249,-3.7234,-3.7317,-3.7354,-3.7428,-3.7455,-3.7427,-3.7567,-3.7601,-3.7717,-3.775,-3.7778,-3.78,-3.7764,-3.791,-3.7924,-3.7936,-3.7983,-3.8001,-3.7785,-3.7785,-3.7784,-3.7784,0,-3.7181,-3.7254,-3.7314,-3.7388,-3.7434,-3.7514,-3.7535,-3.758,-3.7579,-3.7599,-3.7696,-3.7737,-3.7807,-3.7835,-3.7834,-3.795,-3.7934,-3.7908,-3.7857,-3.7958,-3.8002,-3.802,-3.7791,-3.7789,-3.7788,-3.7787,0,0,-3.7329,-3.7407,-3.7429,-3.7463,-3.7525,-3.7581,-3.766,-3.773,-3.7769,-3.782,-3.7887,-3.7981,-3.7958,-3.7997,-3.8,-3.8053,-3.8158,-3.8021,-3.8022,-3.8046,-3.8289,-3.8309,-3.833,-3.8148,-3.8152,-3.8154,-3.8285,0,-3.7454,-3.7595,-3.7606,-3.7732,-3.78,-3.7786,-3.7855,-3.79,-3.7921,-3.798,-3.8002,-3.8069,-3.8033,-3.8057,-3.8109,-3.8134,-3.8207,-3.8125,-3.821,-3.8213,-3.8198,-3.8352,-3.8373,-3.8495,-3.8302,-3.8305,-3.8307,0,-3.7619,-3.7677,-3.7811,-3.7865,-3.7894,-3.7955,-3.802,-3.8078,-3.8128,-3.8139,-3.8184,-3.818,-3.826,-3.8206,-3.8317,-3.8261,-3.8296,-3.8313,-3.8318,-3.8327,-3.8267,-3.8366,-3.8534,-3.8553,-3.8334,-3.8332,-3.833,0,-3.7714,-3.7826,-3.7921,-3.795,-3.8014,-3.8058,-3.8087,-3.8134,-3.8176,-3.8232,-3.8259,-3.8323,-3.8359,-3.8408,-3.8421,-3.8381,-3.8532,-3.8479,-3.8543,-3.8543,-3.8576,-3.8574,-3.8753,-3.8597,-3.8597,-3.8597,-3.8596,0,-3.7854,-3.7936,-3.7965,-3.8023,-3.8115,-3.8126,-3.8216,-3.8242,-3.8285,-3.8347,-3.8338,-3.8397,-3.841,-3.8471,-3.8482,-3.8572,-3.8588,-3.8599,-3.8601,-3.86,-3.8599,-3.8624,-3.8616,-3.8602,-3.86,-3.86,-3.8599,0,-3.7976,-3.7998,-3.8101,-3.8154,-3.8169,-3.8235,-3.828,-3.8336,-3.8355,-3.8434,-3.8453,-3.8484,-3.8555,-3.8573,-3.8658,-3.8665,-3.8772,-3.8765,-3.8755,-3.8755,-3.8819,-3.8813,-3.902,-3.9048,-3.8874,-3.8875,-3.8877,0,-3.8064,-3.8128,-3.8188,-3.823,-3.8261,-3.8329,-3.8371,-3.8384,-3.8429,-3.8491,-3.854,-3.861,-3.8667,-3.8782,-3.8811,-3.8875,-3.8871,-3.8939,-3.888,-3.8878,-3.8873,-3.8869,-3.8876,-3.895,-3.8952,-3.8954,-3.8955,0,-3.8218,-3.8226,-3.8289,-3.8356,-3.8407,-3.846,-3.851,-3.8545,-3.8565,-3.8615,-3.8689,-3.8733,-3.8821,-3.8891,-3.8956,-3.8984,-3.8973,-3.8973,-3.8992,-3.8992,-3.8984,-3.899,-3.8787,-3.8969,-3.8967,-3.8966,-3.8965,-3.8965,-3.8327,-3.8383,-3.8435,-3.8504,-3.8544,-3.8592,-3.8647,-3.8674,-3.8736,-3.8809,-3.8812,-3.8893,-3.8941,-3.9029,-3.906,-3.9123,-3.9102,-3.9128,-3.9135,-3.9142,-3.9148,-3.8974,-3.9134,-3.9134,-3.9134,-3.9133,-3.9133,0,-3.8481,-3.8514,-3.8578,-3.865,-3.8705,-3.8691,-3.8746,-3.8793,-3.8864,-3.8911,-3.8968,-3.9053,-3.9121,-3.9155,-3.9223,-3.9266,-3.9262,-3.9283,-3.928,-3.9287,-3.9162,-3.914,-3.9285,-3.9285,-3.9285,-3.9285,-3.9285,-3.9285,-3.8568,-3.8663,-3.8677,-3.8791,-3.8822,-3.8902,-3.8935,-3.8978,-3.9016,-3.9112,-3.9169,-3.9192,-3.9234,-3.9304,-3.9366,-3.9374,-3.9399,-3.9423,-3.9429,-3.9311,-3.9296,-3.9281,-3.926,-3.9428,-3.9428,-3.9549,-3.955,-3.9551]}]]